GLOBALSTAR M089

Last updated on Mon Sep 21 2026 00:03:12 GMT+0000 (Coordinated Universal Time)

1 37744U 11033F 26263.61674432 -.00000092 00000+0 64874-4 0 9999 2 37744 51.9919 219.2294 0000572 34.2009 136.5026 12.62263758702837
UTC large
Height (km)
Speed (km/s)
/
Latitude / Longitude
Inclination (degrees)
Orbital Period (minutes)
Azimuth
Elevation
Range (km)
Doppler Factor

Next 0 passes for location: London (51.5072 / 0.1276)

No passes found over London.
GLOBALSTAR M089